Miscellaneous Local Product
Issued by NWS North Platte, NE

Home | Current Version | Previous Version | Graphics & Text | Print | Product List | Glossary On
Versions: 1 2 3 4 5 6 7 8 9 10 11 12 13 14 15 16 17 18 19 20 21 22 23 24 25 26 27 28 29 30 31 32 33 34 35 36 37 38 39 40 41 42 43 44 45 46 47 48 49 50
000
AXUS43 KLBF 201810
MISLBF


WESTERN AND NORTH CENTRAL NEBRASKA HOURLY WEATHER ROUNDUP
NATIONAL WEATHER SERVICE NORTH PLATTE NE
1200 PM CST SAT DEC 20 2014

***STATIONS NOT REPORTING VARIABLES SUCH AS SKY/WEATHER OR
PRESSURE ARE PROVIDED BY THE NEBRASKA DEPARTMENT OF
ROADS...RAWS...AND APRS NETWORKS...AND ARE NOT UNDER
NATIONAL WEATHER SERVICE QUALITY CONTROL***

...OBSERVATIONS IN AND NEAR THE EASTERN PANHANDLE OF NEBRASKA...

CITY           SKY/WX    TMP DP  RH WIND       PRES   REMARKS
PINE RIDGE     CLOUDY    39  26  59 W6        29.94F WCI  35
CHADRON        PTSUNNY   39  28  64 SW5       29.95F
ALLIANCE       CLOUDY    33  27  78 W7        29.95F WCI  27
SIDNEY         PTSUNNY   41  26  55 W10       29.99F
WHITECLAY        N/A     39  23  52 CALM        N/A
CRESCENT LAKE    N/A     41  32  69 W6          N/A
LISCO            N/A     32  21  64 W3          N/A
BIG SPRINGS      N/A     29  25  85 SW16        N/A  WCI  17
$$

...OBSERVATIONS IN NORTH CENTRAL NEBRASKA...

CITY           SKY/WX    TMP DP  RH WIND       PRES   REMARKS
VALENTINE      PTSUNNY   31  25  78 SW3       29.95F
THEDFORD       CLOUDY    37  28  70 W6        29.97F WCI  33
AINSWORTH      MOSUNNY   32  26  77 S6        29.95F WCI  26
O`NEILL        SUNNY    N/A N/A N/A S3        29.99F
BROKEN BOW     MOSUNNY   35  29  78 CALM      29.98F
BROWNLEE         N/A     32  23  68 SW3         N/A
SPRINGVIEW       N/A     26  23  88 CALM        N/A
BREWSTER         N/A     34  27  74 CALM        N/A
ROSE             N/A     33  31  94 MISG        N/A
SARGENT          N/A     27  26  95 CALM        N/A
COMSTOCK         N/A     34  32  93 CALM        N/A
CHAMBERS         N/A     31  29  90 CALM        N/A
EWING            N/A     30  29  97 CALM        N/A
$$

...OBSERVATIONS IN SOUTHWEST NEBRASKA AND FAR NORTHEAST COLORADO...

CITY           SKY/WX    TMP DP  RH WIND       PRES   REMARKS
WRAY           FAIR      35  28  74 W3        30.02F
HOLYOKE        FAIR      37  30  75 W12       30.01F WCI  30
IMPERIAL       CLOUDY    35  25  66 W8        30.00F WCI  29
OGALLALA       PTSUNNY   28  24  85 W7        29.99F WCI  21
NORTH PLATTE   PTSUNNY   34  26  72 W9        29.99F WCI  27
MCCOOK         PTSUNNY   36  26  67 W8        30.02F WCI  30
LEXINGTON      MOSUNNY   35  30  80 CALM      30.01F
PAXTON           N/A     29  25  83 SW6         N/A  WCI  23
BRADY            N/A     32  26  79 CALM        N/A
GOTHENBURG       N/A     39  28  63 CALM        N/A
CALLAWAY         N/A     36  31  82 W10         N/A  WCI  28
$$

...NORTH PLATTE AREA...

CITY           SKY/WX    TMP DP  RH WIND       PRES   REMARKS
AIRPORT        PTSUNNY   34  26  72 W9        29.99F WCI  27
DOWNTOWN         N/A     35  27  71 SW3         N/A
$$

...SOME WEATHER OBSERVATIONS FROM AROUND THE REGION...

CITY           SKY/WX    TMP DP  RH WIND       PRES   REMARKS
DENVER         CLOUDY    34  21  59 N6        30.00F WCI  29
LARAMIE        PTSUNNY   33  20  58 S16       30.00F WCI  23
CHEYENNE       PTSUNNY   38  20  48 W8        30.00F WCI  32
SCOTTSBLUFF    CLOUDY    30  24  78 SE3       29.98F
RAPID CITY     PTSUNNY   47  27  45 N3        29.92S
PIERRE         CLOUDY    24  20  84 SE5       29.95F WCI  18
WINNER         FAIR      33  23  66 SW9       29.95F WCI  25
SIOUX FALLS    CLOUDY    32  29  88 S10       30.06S WCI  24
OMAHA          CLOUDY    33  31  92 SE8       30.12F FOG     WCI  26
GRAND ISLAND   FOG       30  29  96 S6        30.04F VSB 1/2 WCI  24
KANSAS CITY    CLOUDY    41  36  82 S9        30.14F
WICHITA        MOSUNNY   47  38  71 S13       30.15F
HAYS           SUNNY     43  30  61 SW6       30.06F
LIBERAL        CLOUDY    34  30  86 S10       30.11F VSB 1   WCI  26
GOODLAND       MOSUNNY   50  29  44 NW6       30.02F
$$



USA.gov is the U.S. government's official web portal to all federal, state and local government web resources and services.